TimeMST,TemperatureF,Dew PointF,Humidity,Sea Level PressureIn,VisibilityMPH,Wind Direction,Wind SpeedMPH,Gust SpeedMPH,PrecipitationIn,Events,Conditions,WindDirDegrees,DateUTC
12:53 AM,-0.9,-6.0,79,30.57,10.0,Calm,Calm,-,N/A,,Clear,0,2013-01-21 07:53:00
1:53 AM,-0.9,-6.0,79,30.55,10.0,Calm,Calm,-,N/A,,Clear,0,2013-01-21 08:53:00
2:53 AM,-4.0,-9.0,79,30.57,10.0,Calm,Calm,-,N/A,,Clear,0,2013-01-21 09:53:00
3:53 AM,1.9,-4.0,76,30.53,10.0,Calm,Calm,-,N/A,,Clear,0,2013-01-21 10:53:00
4:53 AM,3.0,-2.9,76,30.56,10.0,North,3.5,-,N/A,,Clear,10,2013-01-21 11:53:00
5:53 AM,-0.9,-7.1,75,30.65,10.0,Calm,Calm,-,N/A,,Clear,0,2013-01-21 12:53:00
6:53 AM,1.9,-4.0,76,30.64,10.0,Calm,Calm,-,N/A,,Clear,0,2013-01-21 13:53:00
7:53 AM,-2.0,-8.0,76,30.69,10.0,Calm,Calm,-,N/A,,Clear,0,2013-01-21 14:53:00
8:53 AM,7.0,-0.0,73,30.66,10.0,Calm,Calm,-,N/A,,Clear,0,2013-01-21 15:53:00
9:53 AM,9.0,1.0,70,30.67,10.0,Calm,Calm,-,N/A,,Clear,0,2013-01-21 16:53:00
10:53 AM,15.1,5.0,64,30.63,10.0,Calm,Calm,-,N/A,,Clear,0,2013-01-21 17:53:00
11:53 AM,19.9,6.1,55,30.60,10.0,Calm,Calm,-,N/A,,Clear,0,2013-01-21 18:53:00
12:53 PM,25.0,7.0,46,30.55,10.0,Calm,Calm,-,0.00,,Clear,0,2013-01-21 19:53:00
1:53 PM,28.9,10.0,45,30.50,10.0,Calm,Calm,-,N/A,,Clear,0,2013-01-21 20:53:00
2:53 PM,30.0,10.0,43,30.50,10.0,Calm,Calm,-,N/A,,Clear,0,2013-01-21 21:53:00
3:53 PM,28.9,10.0,45,30.47,10.0,Calm,Calm,-,N/A,,Clear,0,2013-01-21 22:53:00
4:53 PM,23.0,9.0,55,30.49,10.0,WSW,3.5,-,N/A,,Clear,250,2013-01-21 23:53:00
5:53 PM,14.0,5.0,67,30.56,10.0,Calm,Calm,-,N/A,,Clear,0,2013-01-22 00:53:00
6:53 PM,9.0,3.0,77,30.58,10.0,Variable,4.6,-,N/A,,Clear,0,2013-01-22 01:53:00
7:53 PM,3.9,-2.0,76,30.63,10.0,NNE,3.5,-,N/A,,Clear,30,2013-01-22 02:53:00
8:53 PM,3.9,-2.0,76,30.58,10.0,NE,3.5,-,N/A,,Clear,50,2013-01-22 03:53:00
9:53 PM,6.1,-0.0,76,30.57,10.0,ESE,3.5,-,N/A,,Clear,110,2013-01-22 04:53:00
10:53 PM,3.0,-4.0,73,30.57,10.0,Calm,Calm,-,N/A,,Clear,0,2013-01-22 05:53:00
11:53 PM,3.0,-2.9,76,30.54,10.0,Calm,Calm,-,N/A,,Clear,0,2013-01-22 06:53:00